Home > Weather > Yarmouth County > Past weeks

Flag for Canada Past Weather in Yarmouth County, Nova Scotia, Canada — Yesterday and Last 2 Weeks

Now
66 °F

Passing clouds.


Feels Like: 66 °F
Forecast: N/A
Wind: 14 mph from Northwest

Location: Yarmouth

Current Time: Jun 24, 2016 at 7:10:19 PM

Latest Report: Jun 24, 2016 at 6:00 PM


Visibility: 15 mi

Pressure: 30.09 "Hg

Humidity: 49%

Dew Point: 46 °F

Location of Yarmouth CountyLocation

Past Weather in Yarmouth County — Graph

°F

Yarmouth County Temperature Yesterday

Maximum temperature yesterday: 64 °F (at 11:00 AM)
Minimum temperature yesterday: 52 °F (at 3:00 AM)
Average temperature yesterday: 59 °F

High & Low Weather Summary for the Past Weeks

 TemperatureHumidityPressure
High72 °F (Jun 22, 1:00 PM)100% (Jun 10, 5:00 AM)30.36 "Hg (Jun 10, 5:00 AM)
Low45 °F (Jun 18, 5:00 AM)38% (Jun 24, 2:00 PM)29.37 "Hg (Jun 12, 5:00 PM)
Average56 °F83%29.84 "Hg
* Reported Jun 9 6:00 PM — Jun 24 6:00 PM, Yarmouth County, Weather by CustomWeather, © 2016

Note: Actual official high and low records may vary slightly from our data, if they occured in-between our weather recording intervals... More about our weather records

Advertising

Yarmouth County Weather History for the Previous 24 Hours

Scroll right to see more
 ConditionsComfort  
Time TempWeatherWind HumidityBarometerVisibility
6:00 PM
Fri, Jun 24
66 °FPassing clouds.14 mph49%30.09 "Hg15 mi
5:00 PM68 °FPassing clouds.15 mph46%30.09 "Hg15 mi
4:00 PM70 °FPassing clouds.16 mph43%30.07 "Hg15 mi
3:00 PM70 °FPassing clouds.16 mph40%30.06 "Hg15 mi
2:00 PM72 °FPassing clouds.15 mph38%30.04 "Hg15 mi
1:00 PM72 °FPassing clouds.15 mph50%30.03 "Hg15 mi
12:00 PM70 °FPassing clouds.16 mph53%30.02 "Hg15 mi
11:00 AM66 °FPassing clouds.12 mph73%30.00 "Hg15 mi
10:00 AM64 °FPassing clouds.7 mph78%29.98 "Hg15 mi
9:00 AM61 °FPassing clouds.9 mph88%29.98 "Hg15 mi
8:00 AM55 °FFog.7 mph100%29.96 "Hg0 mi
7:54 AM55 °FFog.8 mph100%29.95 "Hg1 mi
7:00 AM54 °FFog.6 mph100%29.93 "Hg1 mi
6:00 AM52 °FFog.2 mph100%29.91 "Hg1 mi
5:00 AM48 °FFog.2 mph100%29.90 "Hg15 mi
4:00 AM48 °FFog.2 mph100%29.89 "Hg12 mi
3:00 AM52 °FFog.No wind100%29.89 "Hg15 mi
2:00 AM52 °FPassing clouds.No wind100%29.90 "Hg15 mi
1:00 AM52 °FPassing clouds.3 mph100%29.90 "Hg15 mi
12:00 AM54 °FPassing clouds.2 mph100%29.90 "Hg15 mi
11:00 PM
Thu, Jun 23
55 °FPassing clouds.5 mph94%29.90 "Hg15 mi
10:00 PM57 °FBroken clouds.2 mph88%29.90 "Hg15 mi
9:00 PM59 °FBroken clouds.3 mph82%29.89 "Hg15 mi
8:00 PM61 °FBroken clouds.6 mph77%29.89 "Hg15 mi
7:00 PM64 °FBroken clouds.10 mph68%29.88 "Hg15 mi
Weather by CustomWeather, © 2016

See weather overviewHow to use our weather pages